Location: Étang Rond
(42.7927°N, 1.0661°E)
Time: 23:05:48
(UTC+00:00)

Gbstr 26 Del rocket - Pass Details

Date: 08 November 2025
Orbit: 489 x 1219 km, 51.8° (Epoch: 13 December)

Event Time Altitude Azimuth Distance (km) Brightness Sun altitude
Exits shadow 03:58:38 57° 85° (E) 844 3.9 -29.6°
Drops below altitude 10° 04:03:15 10° 59° (ENE) 2,409 6.8 -28.8°
Sets 04:06:02 0° 57° (ENE) 3,476 7.8 -28.2°
